Tracking 35237 objects as of 5-Sep-2026
HD Live streaming from Space Station
objects crossing your sky now

SL-14 DEB


SL-14 DEB is no longer on orbit


NORAD ID: 29147
Int'l Code: 1985-108AG
Launch date: November 22, 1985
Source: Commonwealth of Independent States (former USSR) (CIS)
Launch site: PLESETSK MISSILE AND SPACE COMPLEX (PKMTR)
Decay date: 2006-07-10

Note: This is SATELLITE DEBRIS
Your satellite tracking list
Your tracking list is empty




NASA's NSSDC Master Catalog

Two Line Element Set (TLE):
1 29147U 85108AG  06191.16476026  .19608146  00000-0  86294-1 0  9999
2 29147 082.4343 253.8502 0025816 271.1476 090.2669 15.77515479  9871
Source of the keplerian elements: AFSPC